Weather in Medvedevo

Russia / Arkhangel'skaya Oblast'     60°59′51″N   38°33′08″E
temp.,
°C
wind,
m/s
gust,
m/s
humid.,
%
clouds,
%
prec.,
mm/h
press.,
hPa
HPBL,
m
2 december, thu
thu200:00−11wsw389786 0.0 985161
03:00−8wsw4119489 0.1 987387
06:00−8wsw4129186 0.1 988470
09:00−11wsw4119381 0.1 990349
12:00−11wsw4109373 0.0 992359
15:00−12wsw3109474 0.0 994303
18:00−12wsw399467 0.0 995245
21:00−14wsw279745 0.0 996136
3 december, fri
fri300:00−17wsw249833 0.0 99761
03:00−19w1110065 0.0 99812
06:00−20sw1110094 0.0 99810
09:00−19sw0010079 0.0 10009
12:00−14ene129870 0.0 100159
15:00−16ne2310098 0.0 100244
18:00−12ene3796100 0.1 1002205
21:00−11ene31095100 0.6 1001326
4 december, sat
sat400:00−10ene41094100 0.6 1001413
03:00−10ene41094100 1.3 999420
06:00−11ne41095100 1.4 999462
09:00−12ne51194100 3.2 999499
12:00−12ne41094100 1.7 1000517
15:00−13nne4993100 2.4 1003610
18:00−14nne4991100 0.2 1006640
21:00−14nne399198 0.2 1010514
5 december, sun
sun500:00−15ne389285 0.1 1013354
03:00−18nne249883 0.1 1016100
06:00−21n139986 0.0 101843
09:00−22nne2310094 0.1 102158
12:00−21ne269965 0.0 1024195
15:00−24ne1210023 0.0 102617
18:00−28ne1110047 0.0 102920
21:00−30ene1110059 0.0 103112
6 december, mon
mon600:00−30ene1110012 0.0 103315
03:00−29ene11965 0.0 103414
06:00−28e119510 0.0 103412
09:00−26e1210066 0.0 103532
12:00−20ese27100100 0.0 1034156
15:00−16ese3997100 0.0 1033263
18:00−15ese31191100 0.0 1032363
21:00−15ese31183100 0.0 1031361